Regional Weather Roundup
Issued by NWS Albany, NY

Home | Current Version | Previous Version | Text Only | Print | Product List | Glossary On
Versions: 1 2 3 4 5 6 7 8 9 10 11 12 13 14 15 16 17 18 19 20 21 22 23 24 25 26 27 28
000
ASUS41 KALY 290310
RWRALY

NEW YORK STATE HOURLY WEATHER ROUNDUP
NATIONAL WEATHER SERVICE ALBANY NY
1100 PM EDT THU APR 28 2016

NOTE: "FAIR" INDICATES FEW OR NO CLOUDS BELOW 12,000 FEET WITH NO
SIGNIFICANT WEATHER AND/OR NO OBSTRUCTIONS TO VISIBILITY.

NYZ032-033-038>043-046>054-057>066-NYZ062>081-082-084-290400-
EAST


CITY           SKY/WX    TMP DP  RH WIND       PRES   REMARKS
ALBANY         CLOUDY    43  20  39 NE15      30.08R
GLENS FALLS    MOCLDY    39  21  48 N5        30.11R
POUGHKEEPSIE   CLOUDY    52  40  63 SW3       30.04S
NEWBURGH       CLOUDY    48  41  76 W5        30.06R
MONTGOMERY     CLOUDY    48  43  82 S3        30.04F
WHITE PLAINS   MOCLDY    48  31  51 S3        30.05S
ISLIP          CLOUDY    49  36  61 CALM      30.07R
NEW YORK CITY  CLOUDY    50  37  61 S7        30.07R
CENTRAL PARK   CLOUDY    50  36  58 S3        30.09R
$$

NYZ005>009-017-018-044>046-055-056-290400-
CENTRAL


CITY           SKY/WX    TMP DP  RH WIND       PRES   REMARKS
FULTON         PTCLDY    45  23  42 NE9       30.07F
SYRACUSE       CLOUDY    45  27  49 N7        30.05F
ROME           PTCLDY    45  23  42 CALM      30.06R
ELMIRA         LGT RAIN  46  30  53 E6        30.03S
BINGHAMTON     CLOUDY    45  31  58 W5        30.01S
MONTICELLO     CLOUDY    46  34  61 W3        30.03F
$$

NYZ026>034-041>043-087-290400-
NORTH


CITY           SKY/WX    TMP DP  RH WIND       PRES   REMARKS
WATERTOWN      CLOUDY    39  21  48 NE9       30.10F WCI  33
FORT DRUM      NOT AVBL
MASSENA        PTCLDY    34  19  54 NE5       30.16S WCI  30
SARANAC LAKE   CLOUDY    28  16  60 NE3       30.09S
PLATTSBURGH    CLEAR     30  22  72 CALM      30.17R
$$

NYZ001>004-010>016-019>021-085-290400-
WEST


CITY           SKY/WX    TMP DP  RH WIND       PRES   REMARKS
NIAGARA FALLS  CLOUDY    43  25  49 E6        30.05S
BUFFALO        CLOUDY    43  23  45 E13       30.04F
DUNKIRK        CLOUDY    45  32  60 NE10      30.01F
JAMESTOWN      MOCLDY    41  36  81 E7        29.97F
WELLSVILLE     CLOUDY    41  37  86 E3        30.01S
ROCHESTER      CLOUDY    45  25  45 E13       30.07F
PENN YAN       CLOUDY    43  28  55 N5        30.06F
$$

             KEY
       WCI = WIND CHILL INDEX
       VSB = VISIBILITY
       HX  = HEAT INDEX
$$




USA.gov is the U.S. government's official web portal to all federal, state and local government web resources and services.